User: anonymous   Login
Location: Unspecified
(0.0000°N, 0.0000°E)
Time: 16:19:21
(UTC+00:00)
Language:

CANX-2 - Orbit

View from above orbital plane
View from above orbital plane
View from above satellite
View from above satellite

Ground track
Ground track

The orbit data is extracted from the following two-line orbital elements,

1 32790U 08021H   18344.76806894 +.00000180 +00000-0 +25216-4 0  9999
2 32790 097.5485 346.6475 0013997 169.3036 190.8482 14.87910811575282
Epoch (UTC): 10 December 2018 18:26:01
Eccentricity: 0.0013997
inclination: 97.5485°
perigee height: 594 km
apogee height: 614 km
right ascension of ascending node: 346.6475°
argument of perigee: 169.3036°
revolutions per day: 14.87910811
mean anomaly at epoch: 190.8482°
orbit number at epoch: 57528

The dashed part of the orbit path shows where the satellite is in the earth's shadow,  

DLR